CZ-4 DEB, 35332

Orbit data source: Space-Track

CZ-4 DEB, 35332 is space debris in SSO originally from a launch on Thu, 14 Oct 1999 UTC launched from the Taiyaun Space Center, China (TSC). Debris objects in space refer to the collection of defunct objects orbiting the Earth. Examples of debris include non-operational satellites, rocket bodies, and fragments generated from explosions, collisions, or faulty payload assembly.

Loading next visibility...
Identifier
35332, 1999-057SL
Orbit
SSO
Country
Flag of CNCN / PRC
Related business
Manufacturer
Unknown
Mission
Spacecraft
Bus & Motor
Unknown
Mass
Unknown
Launch date (UTC)
1999-10-14 (26 years ago)
Launch vehicle
Unknown
Launch site
Taiyaun Space Center, China (TSC)
Object type
Payload
Rocket body
Debris
Shape & HBR
Unknown shape, 0.1 m
Radar Cross Section
Small (<0.1 m²)

Expand to show TLE details & history
Last TLE update: 3 days ago

TLE from 3 days ago
0 CZ-4 DEB
1 35332U 99057SL  25348.74084981  .00000166  00000-0  78494-4 0  9998
2 35332  98.2397 159.5310 0121328 357.2057   2.8433 14.27256679191578
Epoch: 2025-12-14T17:46Z
TLE epoch observation values (Epoch: 2025-12-14T17:46:49.423Z)
Latitude
-0.00005°
Longitude
169.17566°
Altitude
716.845 km
Speed
7.542 km/s
True Right ascension
10h 38m 07s
True Declination
0° 00' 00"
Sunlit
Object was in daylight at epoch
Visualization orbit readout
Latitude
Unknown
Longitude
Unknown
Altitude
Unknown
Speed
Unknown
Apparent Right ascension
Unknown
Apparent Declination
Unknown
Sunlit
N/A
Visualization observer readout
Local Sidereal Time
13:23:56
Azimuth
Unknown
Elevation
Unknown
Doppler factor
Unknown
Orbital elements
Apogee altitude
885.109 km
Perigee altitude
710.974 km
Semi-major axis
7,176.179 km
Eccentricity
0.01213
Inclination
98.2397°
RAAN
159.531°
Arg. of periapsis
357.2057°
True anomaly
2.91333°
Mean anomaly
2.8433°
Eccentric anomaly
2.87821°
Mean motion
3.57029 °/min
Orbital period
100.83 mins
BSTAR
0.000078494
Loading maneuver chart data...
Computing Atmospheric mass density...
Loading historical data...
Loading historical data...
Loading historical data...
Loading historical data...
Loading historical data...
Loading historical data...
Loading historical data...

Documentation

Showing up to 5 results
|